Content
SEND FEEDBACK

Daily
Averages
Monthly
Summary
United States of America

BRUCE, WISCONSIN


Home > North America > United States > Wisconsin
Elevation: 1156 feet     Latitude: 45 25N     Longitude: 091 22W

WEATHER
 
SELECT A DAY
Number of Records: 442,610;   Date Range: 7/1/96 - 8/12/14
 
SHARE

PRINT THIS DATA

[ ← Previous Day ]
WEATHER ALMANAC - FEBRUARY 13, 2013
[ Next Day → ]
[ °C ]   °F
Weather ElementAverageHighLow
Temperature27 °F33.8 °F (3:35 pm)19.4 °F (3:15 am)
Dewpoint23.2 °F30.2 °F (7:35 pm)17.6 °F (12:35 am)
Humidity85.8 %100 % (8:35 pm)69 % (12:55 pm)
Barometer29.67 in29.75 in (12:35 am)29.59 in (10:15 pm)
Wind Speed2.3 mph6.9 mph (2:15 pm)
Weather ElementAverage
Visibility7.9 mi
Wind DirectionENE (79.4 °)

Weather ElementTotal
Precipitation0.02 in
Heating Degree Days38.4 (Base 65)
Averaged from 71 records on February 13, 2013
WEATHER CONDITIONS BREAKOUT
WIND DIRECTION BREAKOUT
WEATHER BY HOUR - FEBRUARY 13, 2013
[ °C ]   °F
Local TimeTemperatureDewpointHumidityBarometerVisibilityWind DirectionWind SpeedGust SpeedPrecipitationEventsConditions
12:35 AM21.2 °F17.6 °F86 %29.75 in10.0 miCalmOvercast
12:55 AM23.0 °F19.4 °F86 %29.75 in10.0 miCalmOvercast
1:15 AM23.0 °F19.4 °F86 %29.75 in10.0 miCalmOvercast
1:35 AM23.0 °F19.4 °F86 %29.75 in10.0 miCalmOvercast
1:55 AM23.0 °F19.4 °F86 %29.75 in10.0 miCalmOvercast
2:15 AM23.0 °F19.4 °F86 %29.74 in10.0 miSSW (210°)3.5 mphMostly Cloudy
2:35 AM21.2 °F17.6 °F86 %29.74 in10.0 miSSW (210°)3.5 mphScattered Clouds
2:55 AM21.2 °F17.6 °F86 %29.74 in10.0 miCalmMostly Cloudy
3:15 AM19.4 °F17.6 °F93 %29.73 in10.0 miCalmOvercast
3:35 AM21.2 °F19.4 °F93 %29.73 in10.0 miCalmOvercast
3:55 AM21.2 °F17.6 °F86 %29.73 in10.0 miCalmOvercast
4:15 AM21.2 °F17.6 °F86 %29.73 in10.0 miCalmOvercast
4:35 AM21.2 °F17.6 °F86 %29.72 in10.0 miCalmOvercast
4:55 AM19.4 °F17.6 °F93 %29.72 in10.0 miSW (220°)3.5 mphOvercast
5:15 AM21.2 °F17.6 °F86 %29.73 in10.0 miSW (230°)3.5 mphOvercast
5:35 AM21.2 °F17.6 °F86 %29.72 in10.0 miCalmOvercast
5:55 AM21.2 °F17.6 °F86 %29.71 in10.0 miSW (220°)3.5 mphOvercast
6:15 AM21.2 °F17.6 °F86 %29.71 in10.0 miCalmOvercast
6:35 AM21.2 °F17.6 °F86 %29.70 in10.0 miCalmOvercast
6:55 AM21.2 °F17.6 °F86 %29.70 in10.0 miCalmOvercast
7:15 AM21.2 °F17.6 °F86 %29.70 in10.0 miCalmOvercast
7:35 AM21.2 °F17.6 °F86 %29.70 in10.0 miCalmOvercast
7:55 AM19.4 °F17.6 °F93 %29.70 in10.0 miSSE (160°)3.5 mphMostly Cloudy
8:15 AM19.4 °F17.6 °F93 %29.71 in7.0 miCalmMostly Cloudy
8:35 AM21.2 °F19.4 °F93 %29.70 in7.0 miCalmMostly Cloudy
8:55 AM21.2 °F17.6 °F86 %29.70 in7.0 miCalmOvercast
9:15 AM23.0 °F19.4 °F86 %29.70 in10.0 miCalmMostly Cloudy
9:35 AM23.0 °F19.4 °F86 %29.69 in10.0 miCalmMostly Cloudy
9:55 AM24.8 °F19.4 °F80 %29.69 in10.0 miCalmOvercast
10:15 AM24.8 °F21.2 °F86 %29.69 in10.0 miSSW (200°)3.5 mphOvercast
10:35 AM26.6 °F21.2 °F80 %29.69 in10.0 miCalmOvercast
10:55 AM26.6 °F21.2 °F80 %29.69 in10.0 miSouth (190°)3.5 mphOvercast
11:15 AM28.4 °F21.2 °F74 %29.68 in10.0 miCalmMostly Cloudy
11:35 AM28.4 °F21.2 °F74 %29.68 in10.0 miCalmOvercast
11:55 AM30.2 °F23.0 °F75 %29.68 in10.0 miSSW (200°)3.5 mphOvercast
12:15 PM30.2 °F23.0 °F75 %29.67 in10.0 miSSW (200°)4.6 mphOvercast
12:35 PM30.2 °F23.0 °F75 %29.67 in10.0 miSW (220°)3.5 mphMostly Cloudy
12:55 PM32.0 °F23.0 °F69 %29.67 in10.0 miSW (230°)5.8 mphMostly Cloudy
1:15 PM32.0 °F24.8 °F75 %29.66 in10.0 miSouth (190°)4.6 mphOvercast
1:35 PM32.0 °F24.8 °F75 %29.66 in10.0 miSouth (180°)5.8 mphOvercast
1:55 PM32.0 °F26.6 °F80 %29.64 in10.0 miSouth (190°)5.8 mphOvercast
2:15 PM32.0 °F24.8 °F75 %29.64 in10.0 miSouth (180°)6.9 mphOvercast
2:35 PM32.0 °F24.8 °F75 %29.64 in10.0 miSSW (210°)5.8 mphOvercast
2:55 PM32.0 °F24.8 °F75 %29.63 in10.0 miSSW (200°)3.5 mphMostly Cloudy
3:15 PM32.0 °F26.6 °F80 %29.63 in10.0 miSSW (200°)6.9 mphOvercast
3:35 PM33.8 °F26.6 °F75 %29.63 in10.0 miSSW (210°)4.6 mphScattered Clouds
3:55 PM32.0 °F24.8 °F75 %29.63 in10.0 miSW (220°)5.8 mphClear
4:15 PM32.0 °F24.8 °F75 %29.63 in10.0 miSW (220°)4.6 mphClear
4:35 PM32.0 °F26.6 °F80 %29.63 in10.0 miSSW (210°)3.5 mphScattered Clouds
4:55 PM32.0 °F26.6 °F80 %29.64 in10.0 miCalmMostly Cloudy
5:15 PM32.0 °F26.6 °F80 %29.64 in10.0 miCalmOvercast
5:35 PM32.0 °F26.6 °F80 %29.64 in10.0 miCalmOvercast
5:55 PM32.0 °F26.6 °F80 %29.64 in10.0 miCalmOvercast
6:15 PM32.0 °F26.6 °F80 %29.64 in5.0 miCalmOvercast
6:35 PM32.0 °F26.6 °F80 %29.64 in7.0 miCalmOvercast
6:55 PM32.0 °F28.4 °F87 %29.63 in3.0 miCalmSnowLight Snow
7:15 PM32.0 °F28.4 °F87 %29.63 in4.0 miSE (130°)3.5 mphSnowLight Snow
7:35 PM32.0 °F30.2 °F93 %29.63 in2.0 miCalmSnowLight Snow
7:55 PM32.0 °F30.2 °F93 %29.62 in1.5 miEast (90°)3.5 mphSnowLight Snow
8:15 PM32.0 °F30.2 °F93 %29.62 in2.0 miEast (100°)3.5 mphSnowLight Snow
8:35 PM30.2 °F30.2 °F100 %29.62 in1.8 miCalmSnowLight Snow
8:55 PM30.2 °F30.2 °F100 %29.61 in1.8 miESE (110°)3.5 mphSnowLight Snow
9:15 PM30.2 °F30.2 °F100 %29.61 in1.8 miEast (90°)3.5 mphSnowLight Snow
9:35 PM30.2 °F30.2 °F100 %29.60 in2.0 miEast (100°)3.5 mphSnowLight Snow
9:55 PM30.2 °F30.2 °F100 %29.60 in1.5 miEast (80°)3.5 mphSnowLight Snow
10:15 PM30.2 °F30.2 °F100 %29.59 in1.5 miENE (70°)3.5 mphSnowLight Snow
10:35 PM30.2 °F30.2 °F100 %29.59 in1.2 miENE (60°)4.6 mphSnowLight Snow
10:55 PM30.2 °F30.2 °F100 %29.59 in1.0 miNNE (30°)4.6 mphSnowLight Snow
11:15 PM30.2 °F30.2 °F100 %29.59 in0.8 miNNE (30°)5.8 mphSnowLight Snow
11:35 PM30.2 °F30.2 °F100 %29.59 in0.8 miNNE (20°)6.9 mph0.01 inSnowLight Snow
11:55 PM30.2 °F30.2 °F100 %29.59 in0.8 miNNE (30°)6.9 mph0.01 inSnowLight Snow
Hourly data recorded from KRPD, located miles away from Bruce, Wisconsin







STORIES FROM OUR PARTNERS